This is the latest recevied weather packets stored in our database for station/object OE3UKW. If no packets are shown the sender has not sent any weather packets the latest 10 day(s).
| Time | Temp. | Humidity | Pressure | Rain* | Wind** | Luminosity | Snow |
|---|---|---|---|---|---|---|---|
| 1777650672 | 21.11° C | 25% | 1025.8 hPa | 0 mm | - | 76 W/m² | - |
| 1777650072 | 21.11° C | 25% | 1026 hPa | 0 mm | - | 300 W/m² | - |
| 1777649472 | 21.67° C | 24% | 1026.1 hPa | 0 mm | - | 413 W/m² | - |
| 1777648871 | 21.67° C | 24% | 1026.2 hPa | 0 mm | - | 120 W/m² | - |
| 1777648272 | 21.67° C | 26% | 1026.4 hPa | 0 mm | - | 459 W/m² | - |
| 1777647672 | 21.67° C | 24% | 1026.4 hPa | 0 mm | - | 369 W/m² | - |
| 1777647072 | 22.22° C | 24% | 1026.4 hPa | 0 mm | - | 624 W/m² | - |
| 1777646472 | 22.22° C | 24% | 1026.4 hPa | 0 mm | - | 650 W/m² | - |
| 1777645872 | 22.22° C | 26% | 1026.4 hPa | 0 mm | - | 630 W/m² | - |
| 1777645272 | 21.67° C | 25% | 1026.5 hPa | 0 mm | - | 640 W/m² | - |
| 1777644671 | 21.67° C | 25% | 1026.7 hPa | 0 mm | - | 637 W/m² | - |
| 1777644071 | 21.11° C | 25% | 1026.8 hPa | 0 mm | - | 646 W/m² | - |
| 1777643471 | 21.11° C | 25% | 1026.8 hPa | 0 mm | - | 228 W/m² | - |
| 1777642871 | 21.67° C | 24% | 1026.9 hPa | 0 mm | - | 729 W/m² | - |
| 1777642271 | 21.67° C | 28% | 1027.1 hPa | 0 mm | - | 803 W/m² | - |
| 1777641671 | 21.67° C | 26% | 1027.1 hPa | 0 mm | - | 264 W/m² | - |
| 1777641071 | 21.67° C | 26% | 1027.2 hPa | 0 mm | - | 800 W/m² | - |
| 1777640471 | 21.11° C | 27% | 1027.5 hPa | 0 mm | - | 782 W/m² | - |
| 1777639871 | 20.56° C | 27% | 1027.6 hPa | 0 mm | - | 829 W/m² | - |
| 1777639271 | 20° C | 29% | 1027.5 hPa | 0 mm | - | 858 W/m² | - |
| 1777638671 | 20° C | 26% | 1027.7 hPa | 0 mm | - | 869 W/m² | - |
| 1777638071 | 20.56° C | 27% | 1028.1 hPa | 0 mm | - | 1018 W/m² | - |
| 1777637471 | 19.44° C | 30% | 1028.1 hPa | 0 mm | - | 968 W/m² | - |
| 1777636871 | 19.44° C | 28% | 1028.3 hPa | 0 mm | - | 329 W/m² | - |
| 1777636271 | 19.44° C | 28% | 1028.5 hPa | 0 mm | - | 994 W/m² | - |
* Rain latest hour (hover to see other rain measurements)
** Current wind speed in m/s (hover to see current wind gust speed)